Location: Unspecified
(0.0000°N, 0.0000°E)
Time: 00:58:24
(UTC+01:00)

DELTA 2 R/B (1) - Visible Passes

Search period start: 24 November 2014 00:00
Search period end: 04 December 2014 00:00
Orbit: 791 x 804 km, 39.6° (Epoch: 23 November)

Date Brightness Start Highest point End Pass type
(mag) Time Alt. Az. Time Alt. Az. Time Alt. Az.
24 Nov 5.4 20:34:37 10° NNW 20:36:09 17° NNW 20:36:09 17° NNW visible
25 Nov 4.4 20:04:09 10° NNW 20:08:41 29° NE 20:08:41 29° NE visible
26 Nov 4.6 19:33:43 10° NNW 19:38:19 26° NE 19:41:38 16° E visible
26 Nov 5.1 21:19:22 10° WNW 21:22:35 31° W 21:22:35 31° W visible
27 Nov 4.7 19:03:18 10° N 19:07:41 23° NE 19:12:03 10° E visible
27 Nov 4.3 20:48:39 10° WNW 20:54:03 51° SW 20:56:01 35° S visible
28 Nov 4.1 20:17:56 10° WNW 20:23:25 57° SW 20:28:55 10° SE visible
29 Nov 4.0 19:47:15 10° WNW 19:52:47 65° SW 19:58:21 10° SE visible
30 Nov 3.9 19:16:35 10° NW 19:22:10 74° SW 19:27:45 10° SE visible
30 Nov 6.6 21:07:33 10° SW 21:08:44 11° SW 21:09:55 10° SSW visible
01 Dec 5.1 06:08:35 10° SSW 06:13:43 39° SE 06:18:50 10° ENE visible
01 Dec 6.5 20:35:53 10° WSW 20:38:04 12° SW 20:40:15 10° SSW visible
02 Dec 5.2 05:38:05 10° SSW 05:43:05 34° SE 05:48:04 10° ENE visible
02 Dec 6.4 20:04:35 10° WSW 20:07:24 14° SW 20:10:13 10° S visible
03 Dec 5.4 05:07:37 10° SSW 05:12:27 31° SE 05:17:16 10° ENE visible
03 Dec 6.4 19:33:26 10° WSW 19:36:44 16° SW 19:40:02 10° S visible
